Driggs, ID

4:55 AM MST on December 06, 2016 (GMT -0700)
Driggs

Weather History for KDIJ - July, 2013

Change the Weather History Date:

Monday, July 15, 2013

  Actual Average (KRXE) Record (KRXE)
Temperature  
Mean Temperature 68 °F 67 °F  
Max Temperature 88 °F 84 °F 96 °F (2007)
Min Temperature 48 °F 50 °F 42 °F (2010)
Degree Days  
Heating Degree Days 0 1  
Month to date heating degree days 23  
Since 1 June heating degree days 195  
Since 1 July heating degree days 23  
Cooling Degree Days 3 3  
Month to date cooling degree days 29  
Year to date cooling degree days 51  
Since 1 June cooling degree days 47  
Growing Degree Days 18 (Base 50)    
Moisture  
Dew Point 38 °F    
Average Humidity 37    
Maximum Humidity 66    
Minimum Humidity 12    
Precipitation  
Precipitation 0.00 in 0.02 in 1.15 in (2014)
Month to date precipitation 0.42  
Year to date precipitation 7.66  
Snow  
Snow 0.00 in - - ()
Snow Depth -    
Sea Level Pressure  
Sea Level Pressure 29.93 in    
Wind  
Wind Speed 3 mph (SSE)    
Max Wind Speed 10 mph    
Max Gust Speed -    
Visibility 10 miles    
Events      
T = Trace of Precipitation, MM = Missing Value Source: NWS Daily Summary

Daily Weather History Graph

Daily Weather History Graph

Search for Another Location

Airport or City:

Trip Planner

Search our weather history database for the weather conditions in past years. The results will help you decide how hot, cold, wet, or windy it might be!

Date:

Astronomy

Jul. 15, 2013 Rise Set
Actual Time 5:56 AM MDT 9:03 PM MDT
Civil Twilight 5:21 AM MDT 9:38 PM MDT
Nautical Twilight 4:37 AM MDT 10:22 PM MDT
Astronomical Twilight 3:43 AM MDT 11:16 PM MDT
Moon 1:36 PM MDT (7/15) 12:03 AM MDT (7/15)
Length of Visible Light 16h 16m
Length of Day
15h 07m
Waxing Crescent, 46% of the Moon is Illuminated
Jul 15
Waxing Crescent
Jul 15
First Quarter
Jul 22
Full
Jul 29
Last Quarter
Aug 6
New

Hourly Weather History & Observations

Time (MDT) Temp. Dew Point Humidity Pressure Visibility Wind Dir Wind Speed Gust Speed Precip Events Conditions
12:56 AM 52.0 °F 39.9 °F 63% 29.96 in 10.0 mi Calm Calm - N/A   Clear
1:56 AM 55.9 °F 36.0 °F 47% 29.94 in 10.0 mi Calm Calm - N/A   Clear
2:56 AM 48.9 °F 36.0 °F 61% 29.96 in 10.0 mi Calm Calm - N/A   Clear
3:56 AM 48.9 °F 37.9 °F 66% 29.98 in 10.0 mi NW 8.1 mph - N/A   Clear
4:56 AM 50.9 °F 36.0 °F 57% 29.96 in 10.0 mi Calm Calm - N/A   Clear
5:56 AM 50.0 °F 34.9 °F 56% 29.97 in 10.0 mi Calm Calm - N/A   Clear
6:56 AM 50.9 °F 37.9 °F 61% 29.97 in 10.0 mi NNE 5.8 mph - N/A   Clear
7:56 AM 61.0 °F 37.9 °F 42% 29.95 in 10.0 mi Calm Calm - N/A   Clear
8:56 AM 68.9 °F 43.9 °F 40% 29.94 in 10.0 mi ESE 3.5 mph - N/A   Clear
9:56 AM 77.9 °F 41.0 °F 27% 29.91 in 10.0 mi SW 4.6 mph - N/A   Clear
10:56 AM 81.9 °F 36.9 °F 20% 29.92 in 10.0 mi SW 6.9 mph - N/A   Clear
11:56 AM 84.9 °F 30.0 °F 14% 29.92 in 10.0 mi SW 8.1 mph - N/A   Clear
12:41 PM 84.2 °F 26.6 °F 12% 30.19 in 10.0 mi South 8.1 mph - N/A   Partly Cloudy
12:56 PM 86.0 °F 31.1 °F 14% 29.91 in 10.0 mi Variable 5.8 mph - N/A   Partly Cloudy
1:56 PM 88.0 °F 29.1 °F 12% - - North - - N/A   Unknown
2:41 PM 82.4 °F 37.4 °F 20% 30.18 in 10.0 mi North - - N/A   Mostly Cloudy
2:56 PM 81.9 °F 36.9 °F 20% 29.93 in 10.0 mi North - - N/A   Scattered Clouds
3:56 PM 77.9 °F 46.9 °F 33% 29.92 in 10.0 mi ESE 10.4 mph - N/A   Partly Cloudy
4:56 PM 86.0 °F 36.0 °F 17% 29.86 in 10.0 mi ENE 4.6 mph - N/A   Clear
5:56 PM 86.0 °F 36.0 °F 17% 29.85 in 10.0 mi Variable 6.9 mph - N/A   Clear
6:56 PM 84.9 °F 36.9 °F 18% 29.84 in 10.0 mi SW 6.9 mph - N/A   Clear
7:56 PM 77.0 °F 45.0 °F 32% 29.84 in 10.0 mi WSW 8.1 mph - N/A   Clear
8:56 PM 73.9 °F 45.0 °F 35% 29.82 in 10.0 mi ENE 10.4 mph - N/A   Clear
9:56 PM 65.8 °F 50.0 °F 57% 29.84 in 10.0 mi SSE 3.5 mph - N/A   Clear
10:56 PM 61.0 °F 45.9 °F 58% 29.85 in 10.0 mi East 3.5 mph - N/A   Clear
11:56 PM 59.0 °F 45.9 °F 62% 29.85 in 10.0 mi East 4.6 mph - N/A   Clear